sat.trackr.live / text

‹ back to catalog

STARLINK-32583

NORAD 61955 · 2024-209S

PAYLOAD ACTIVE UNKNOWN

§ Identity

Operator
Country
US
Launch date
2024-11-14
Launch site
AFWTR
Launch vehicle
Mass (kg)
RCS (m²)

Purposes: comms

External: N2YO · Heavens-Above · Gunter

§ Orbital elements

Epoch: 2026-09-21T09:16:07.209120Z

Period
93.85 min
Inclination
53.1605°
Eccentricity
0.0001239
Mean motion
15.34405137 rev/d
Perigee alt
461.8 km
Apogee alt
463.5 km
Semi-major
6,840.8 km
B*
7.1132e-4
RAAN
303.8279°
Arg perigee
82.2915°
Mean anomaly
277.8228°
Rev number
10,500

§ Raw data

STARLINK-325831 61955U 24209S   26264.38619455  .00023737  00000+0  71132-3 0  99922 61955  53.1605 303.8279 0001239  82.2915 277.8228 15.34405137105007

JSON: /api/v1/satellites/61955 · /tle

For live sub-satellite position, see the globe view (requires WebGL).

§ Visibility from observer

Set your observer location to see the next 7 days of passes ≥ 10°. The values pass through the URL so the page stays shareable.

No JS? Fill the form by hand. The geolocation button needs JavaScript.